User: anonymous
Location: Camp Creek
(33.9000°N, 111.8167°W)
Time: 19:14:29
(UTC-07:00)
Language:

Cosmos 1656 - Orbit

View from above orbital plane
View from above orbital plane
View from above satellite
View from above satellite

Ground track
Ground track

The orbit data is extracted from the following two-line orbital elements,

1 15755U 85042A   14241.47688244  .00000065  00000-0  52257-4 0  8318
2 15755 071.1148 357.8075 0036001 203.2830 156.6668 14.20299965515477
Epoch (UTC): 29 August 2014 11:26:42
Eccentricity: 0.0036001
inclination: 71.1148°
perigee height: 798 km
apogee height: 850 km
right ascension of ascending node: 357.8075°
argument of perigee: 203.2830°
revolutions per day: 14.20299965
mean anomaly at epoch: 156.6668°
orbit number at epoch: 51547

The dashed part of the orbit path shows where the satellite is in the earth's shadow,  

DLR